Home   Weather   Sundern (Sauerland)   Past weeks

Flag for Germany Past Weather in Sundern (Sauerland), North Rhine-Westphalia, Germany — Yesterday and Last 2 Weeks

Now
75 °F

Clear.


Feels Like: 78 °F
Forecast: 61 / 72 °F
Wind: 2 mph from North

Location: Dortmund / Wickede

Current Time: May 30, 2017 at 1:05:12 am

Latest Report: May 29, 2017 at 9:50 pm


Visibility: 10 mi

Pressure: 29.83 "Hg

Humidity: 54%

Dew Point: 57 °F

Location of Sundern (Sauerland)Location

Past Weather in Sundern (Sauerland) — Graph

°F

Sundern (Sauerland) Temperature Yesterday

Maximum temperature yesterday: 90 °F (at 3:20 pm)
Minimum temperature yesterday: 63 °F (at 5:20 am)
Average temperature yesterday: 79 °F

High & Low Weather Summary for the Past Weeks

 TemperatureHumidityPressure
High90 °F (May 29, 3:20 pm)94% (May 15, 6:50 am)30.42 "Hg (May 15, 6:50 am)
Low45 °F (May 21, 5:20 am)25% (May 27, 5:20 pm)29.77 "Hg (May 19, 5:20 am)
Average65 °F58%30.11 "Hg
* Reported May 14 9:20 pm — May 29 9:50 pm, Sundern (Sauerland). Weather by CustomWeather, © 2017

Note: Actual official high and low records may vary slightly from our data, if they occured in-between our weather recording intervals... More about our weather records

Advertising

Sundern (Sauerland) Weather History for the Previous 24 Hours

Scroll right to see more
 ConditionsComfort  
Time TempWeatherWind HumidityBarometerVisibility
9:50 pm
Mon, May 29
75 °FClear.2 mph54%29.83 "Hg10 mi
9:20 pm77 °FSunny.2 mph51%29.83 "Hg10 mi
8:50 pm77 °FSunny.3 mph51%29.83 "Hg10 mi
8:20 pm77 °FPassing clouds.5 mph47%29.83 "HgN/A
7:50 pm82 °FSunny.5 mph37%29.83 "Hg10 mi
7:20 pm84 °FPassing clouds.7 mph37%29.83 "HgN/A
6:50 pm86 °FSunny.8 mph31%29.83 "Hg10 mi
6:20 pm88 °FSunny.13 mph25%29.83 "Hg10 mi
5:50 pm88 °FPassing clouds.8 mph25%29.83 "HgN/A
5:20 pm88 °FSunny.9 mph31%29.83 "Hg10 mi
4:50 pm88 °FPassing clouds.9 mph33%29.83 "HgN/A
4:20 pm88 °FPassing clouds.12 mph31%29.86 "HgN/A
3:50 pm88 °FPassing clouds.14 mph27%29.86 "HgN/A
3:20 pm90 °FSunny.14 mph29%29.86 "Hg10 mi
2:50 pm88 °FPassing clouds.10 mph29%29.86 "HgN/A
2:20 pm88 °FPassing clouds.10 mph29%29.86 "HgN/A
1:50 pm88 °FPassing clouds.6 mph31%29.89 "HgN/A
1:20 pm86 °FPassing clouds.7 mph40%29.89 "HgN/A
12:50 pm84 °FPassing clouds.7 mph45%29.89 "HgN/A
12:20 pm82 °FPassing clouds.7 mph55%29.89 "HgN/A
11:50 am81 °FPassing clouds.7 mph58%29.92 "HgN/A
11:20 am79 °FPassing clouds.5 mph61%29.92 "HgN/A
10:50 am77 °FSunny.3 mph61%29.92 "Hg10 mi
10:20 am75 °FPassing clouds.5 mph65%29.92 "HgN/A
9:50 am75 °FSunny.3 mph65%29.95 "Hg10 mi
9:20 am73 °FPassing clouds.5 mph69%29.95 "HgN/A
8:50 am72 °FSunny.3 mph73%29.95 "Hg10 mi
8:20 am70 °FSunny.3 mph78%29.95 "Hg10 mi
7:50 am68 °FSunny.2 mph78%29.95 "Hg10 mi
7:20 am68 °FClear.2 mph78%29.95 "Hg6 mi
6:50 am64 °FClear.3 mph88%29.95 "Hg6 mi
6:20 am63 °FClear.3 mph88%29.95 "Hg4 mi
5:50 am63 °FClear.2 mph88%29.95 "Hg6 mi
5:20 am63 °FSunny.1 mph88%29.95 "Hg10 mi
Weather by CustomWeather, © 2017

See weather overviewHow to use our weather pages